Lid_Strength_Index
12 11 11 12 13 13 14 14 16 15 14 11 10 9 8 8 8 8 8 9 8 6 6 4 4 4 4 3 3 3 4 4 4 4 3 3 3 2 2 2 2 2 2 3
14 12 12 13 13 13 13 13 13 13 14 10 9 9 9 8 8 8 8 8 9 7 6 5 4 4 3 3 3 3 3 3 3 3 3 3 3 3 3 2 2 2 4 4
17 13 13 16 13 12 12 11 12 14 12 10 10 9 9 8 8 8 8 8 8 8 6 5 5 4 4 3 3 3 3 3 3 3 3 3 3 3 3 3 4 5 6 7
17 15 21 13 10 10 11 11 11 11 11 9 9 8 9 8 8 8 8 8 8 8 7 5 5 5 5 5 4 3 3 3 3 3 3 3 3 4 5 6 6 7 7 7
17 17 15 13 11 11 12 12 10 11 10 9 9 11 10 9 9 8 9 8 8 8 7 6 4 4 4 5 4 4 4 4 4 3 3 5 6 8 8 8 7 9 9 9
16 19 20 13 9 8 9 14 9 9 9 9 9 13 11 7 8 8 8 8 8 8 7 5 4 4 4 4 5 5 5 5 4 5 6 7 8 8 9 9 10 11 11 10
16 16 15 10 8 7 16 14 8 8 8 8 10 10 8 8 8 8 7 6 5 5 5 4 4 4 6 6 5 6 7 7 8 7 8 8 10 10 10 11 13 14 15 15
15 17 19 8 9 13 10 8 8 7 7 7 7 7 8 7 7 8 7 5 5 5 6 6 6 6 8 8 8 9 9 10 10 10 11 11 11 12 12 14 15 16 17 17
13 14 9 8 8 7 6 7 7 7 7 6 7 8 8 7 8 7 6 6 6 6 7 7 6 7 8 11 11 11 11 12 11 11 11 11 12 13 14 14 16 16 16 16
12 10 9 7 7 6 6 6 6 5 6 6 7 7 8 8 8 8 7 7 6 7 8 9 8 9 10 11 10 11 12 13 12 13 13 13 13 13 14 15 15 15 16 17
11 10 8 8 7 6 7 6 6 5 5 6 7 6 7 7 8 8 8 7 7 8 10 10 9 10 10 10 11 12 13 13 14 14 15 15 16 15 15 14 14 15 16 17
13 9 9 8 7 8 8 8 8 8 7 9 11 10 8 7 8 8 9 9 10 11 12 12 12 13 11 11 11 13 14 15 15 16 16 16 16 17 15 15 15 16 16 17
8 8 8 8 7 9 10 9 10 11 12 13 12 13 10 12 14 13 13 14 15 15 15 15 16 16 14 13 13 14 15 16 16 16 16 17 17 18 19 17 16 16 16 16
7 8 8 8 9 10 10 11 11 13 14 15 15 14 15 16 16 17 17 16 16 16 17 17 17 17 16 15 16 16 16 16 17 17 17 17 18 18 17 18 19 18 16 16
10 9 8 8 10 11 12 13 15 16 16 17 16 17 17 18 18 17 16 16 17 17 17 17 18 17 16 16 16 16 16 17 16 16 17 17 16 17 17 18 18 18 18 18
11 10 8 9 11 13 14 14 16 16 16 17 17 18 18 18 19 19 19 18 19 20 19 19 19 18 17 17 17 18 18 18 17 17 17 18 17 17 17 18 18 18 19 19
12 12 12 12 13 15 15 15 16 16 17 17 18 18 18 19 19 20 20 20 20 20 20 20 20 19 18 18 18 18 19 19 18 19 18 18 18 19 19 19 20 21 21 20
13 13 14 14 15 15 16 16 17 17 18 18 19 19 20 21 21 21 21 20 21 21 20 19 18 18 18 18 19 19 18 19 19 19 19 20 20 20 20 21 21 21 22 22
15 15 15 16 16 16 17 18 18 18 19 19 20 21 21 21 21 21 21 21 21 22 21 20 18 19 20 19 19 20 20 21 21 21 21 22 22 22 22 23 23 23 23 23
15 15 16 17 17 17 18 18 18 19 19 20 20 21 22 21 21 22 22 23 22 21 20 20 21 21 21 21 20 20 21 21 21 22 23 23 24 24 23 24 24 25 26 26
17 18 18 18 19 18 19 19 19 20 20 20 22 22 23 22 22 22 23 24 22 21 21 21 21 22 21 21 22 22 23 24 24 25 26 27 27 28 28 29 29 31 31 32
18 19 19 19 19 20 19 19 20 20 20 20 21 21 22 23 23 23 22 23 22 22 23 23 23 24 23 23 24 25 25 25 26 27 27 28 30 31 32 33 35 35 36 34
18 18 19 19 20 20 19 20 20 21 21 22 22 22 23 22 22 24 25 23 23 24 24 25 25 25 25 26 26 27 27 28 29 31 32 34 36 37 36 36 37 35 35 33
19 19 19 19 19 20 21 20 19 20 20 20 21 21 21 23 23 22 23 25 26 26 26 26 27 27 28 28 29 30 31 33 34 37 36 37 40 40 38 38 36 37 37 36
19 19 19 19 19 20 20 20 20 21 21 21 21 21 21 21 23 23 23 24 24 26 28 29 29 30 31 32 34 34 35 36 38 38 39 39 39 38 38 38 39 38 39 39
20 20 20 20 20 20 20 20 22 21 21 23 23 23 24 23 23 24 25 26 26 28 30 35 36 36 36 34 36 36 35 33 35 36 38 38 38 38 39 37 39 39 40 40
21 21 21 21 22 22 22 23 24 26 28 29 26 25 27 28 29 27 31 32 34 35 37 38 37 34 34 36 35 36 35 36 37 37 40 39 38 39 39 40 40 41 40 41